[[{"header":{"parameterUnit":"m.s-1","parameterCategory":1,"la1":30.2991,"la2":30.254,"lo1":-89.0895,"lo2":-89.0444,"dy":0.0017,"dx":0.0017,"nx":28,"ny":28,"refTime":"2024-05-19T03:00:00:Z","depth":0,"parameterNumber":2,"parameterNumberName":"U-component_of_WINDS"},"data":[0,0,0,0,0,0,0,0,0,0,0,0,0,0,0,0,0,0,0,0,0,0,0,0,0,0,0,0,0,0,0,0,0,0,0,0,0,0,0,0,0,0,0,0,0,0,0,0,0,0,0,0,0,0,0,0,0,0,-1.7611,-1.7611,0,-1.7616,-1.7616,-1.7616,-1.7553,-1.7552,-1.755,-1.7548,-1.7555,-1.7556,-1.7558,0,0,0,0,0,0,0,0,0,0,0,0,0,-1.7549,-1.7551,-1.7611,-1.7611,-1.7611,-1.7616,-1.7616,-1.7616,-1.7554,-1.7551,-1.7549,-1.7547,-1.7554,-1.7556,-1.7558,0,0,0,0,0,0,0,0,0,0,0,0,0,-1.7567,-1.7551,-1.7611,-1.758,-1.7578,-1.7616,-1.7616,-1.7616,-1.7554,-1.7551,-1.7549,-1.7546,-1.7553,-1.7556,-1.7559,-1.7626,0,0,-1.7567,-1.7568,0,0,0,0,0,0,0,0,-1.7566,-1.757,-1.7585,-1.7582,-1.758,-1.7581,-1.7596,-1.7619,-1.7555,-1.7563,-1.7548,-1.7545,-1.7566,-1.7567,-1.7574,-1.7627,-1.7627,-1.7567,-1.7569,-1.757,-1.757,0,0,0,0,0,0,0,-1.7565,-1.7569,-1.7613,-1.7585,-1.7582,-1.7567,-1.7567,-1.76,-1.7579,-1.7562,-1.7558,-1.7559,-1.7564,-1.7571,-1.7573,-1.7627,-1.7567,-1.7569,-1.7571,-1.7572,-1.7737,-1.774,0,0,0,0,0,0,-1.7568,-1.7568,-1.7613,-1.7613,-1.7566,-1.757,-1.757,-1.7583,-1.7578,-1.7575,-1.7561,-1.7556,-1.7568,-1.757,-1.7573,-1.7653,-1.757,-1.7572,-1.7574,-1.7734,-1.7738,-1.7741,0,0,0,0,0,0,-1.7567,-1.7572,-1.7612,-1.7589,-1.7593,-1.7574,-1.759,-1.7585,-1.7592,-1.7577,-1.7573,-1.7573,-1.7566,-1.757,-1.7614,-1.7653,-1.7573,-1.7576,-1.7731,-1.7736,-1.7739,-1.7813,0,0,0,0,0,0,-1.7565,-1.7572,-1.7597,-1.759,-1.7595,-1.7652,-1.7592,-1.7587,-1.7597,-1.759,-1.7587,-1.7584,-1.7564,-1.761,-1.7617,-1.7655,-1.7578,-1.7728,-1.7733,-1.7738,-1.7807,-1.7819,-1.783,0,0,0,0,0,-1.7563,-1.7618,-1.7599,-1.7605,-1.7626,-1.7655,-1.7657,-1.7633,-1.76,-1.7626,-1.7616,-1.7584,-1.7647,-1.7615,-1.7622,-1.7662,-1.7725,-1.7732,-1.7738,-1.7802,-1.7817,-1.783,0,0,0,0,0,0,-1.763,-1.7616,-1.7595,-1.7649,-1.7654,-1.7644,-1.7675,-1.7649,-1.7663,-1.7656,-1.7626,-1.7626,-1.7675,-1.7673,-1.7637,-1.7728,-1.7681,-1.7689,-1.7727,-1.7741,-1.7753,-1.7752,-1.758,0,0,0,0,0,-1.7651,-1.7675,-1.7662,-1.7711,-1.7715,-1.7695,-1.7707,-1.7687,-1.7691,-1.7692,-1.7686,-1.7691,-1.7712,-1.7727,-1.7745,-1.7807,-1.7806,-1.7837,-1.7849,-1.7858,-1.7865,-1.7899,-1.7913,-1.7762,-1.7762,-1.7761,0,0,-1.7695,-1.769,-1.7708,-1.7725,-1.7726,-1.7752,-1.7697,-1.7727,-1.7746,-1.7697,-1.7738,-1.7734,-1.7738,-1.7792,-1.7815,-1.7791,-1.7907,-1.7866,-1.7874,-1.7876,-1.7907,-1.7921,-1.7934,-1.7766,-1.7765,-1.7764,0,0,-1.7788,-1.7787,-1.7828,-1.7831,-1.7833,-1.7819,-1.783,-1.7824,-1.782,-1.7861,-1.7824,-1.7848,-1.7884,-1.7888,-1.7895,-1.7992,-1.7963,-1.7999,-1.8058,-1.8091,-1.8103,-1.8113,-1.8148,-1.8161,-1.8006,-1.8006,-1.8006,0,-1.7843,-1.788,-1.7853,-1.7885,-1.7895,-1.7851,-1.7893,-1.7897,-1.7905,-1.7913,-1.7886,-1.7931,-1.7931,-1.7985,-1.8009,-1.8016,-1.8027,-1.7999,-1.8103,-1.8113,-1.8123,-1.8156,-1.8169,-1.801,-1.801,-1.8009,-1.8009,0,-1.7947,-1.7974,-1.8007,-1.8017,-1.8029,-1.8067,-1.8045,-1.8062,-1.8042,-1.8032,-1.8075,-1.8073,-1.809,-1.8102,-1.8082,-1.8154,-1.8139,-1.8108,-1.806,-1.8142,-1.8173,-1.8185,-1.8017,-1.8015,-1.8014,-1.8013,0,0,-1.8083,-1.8077,-1.8089,-1.8093,-1.8093,-1.8114,-1.815,-1.8167,-1.8182,-1.8189,-1.8219,-1.8252,-1.8223,-1.8231,-1.8212,-1.8241,-1.8319,-1.8207,-1.8206,-1.8228,-1.8399,-1.8422,-1.8437,-1.83,-1.8302,-1.8304,-1.8398,0,-1.8174,-1.8234,-1.8211,-1.8273,-1.8298,-1.8258,-1.8289,-1.8293,-1.8285,-1.8306,-1.8296,-1.832,-1.828,-1.8285,-1.8312,-1.8304,-1.8353,-1.8297,-1.8328,-1.833,-1.8329,-1.8453,-1.8478,-1.8567,-1.841,-1.8412,-1.8414,0,-1.8289,-1.8301,-1.8366,-1.8362,-1.8372,-1.84,-1.8415,-1.8434,-1.8438,-1.843,-1.844,-1.8415,-1.8451,-1.8403,-1.8452,-1.8415,-1.8426,-1.8425,-1.8427,-1.843,-1.8377,-1.8459,-1.8594,-1.8608,-1.8432,-1.8431,-1.8429,0,-1.8382,-1.8415,-1.8458,-1.8463,-1.8459,-1.848,-1.848,-1.8481,-1.8493,-1.8506,-1.8514,-1.8531,-1.854,-1.8554,-1.8535,-1.8501,-1.8587,-1.8538,-1.8582,-1.8583,-1.8602,-1.8601,-1.8742,-1.8609,-1.8609,-1.8609,-1.8608,0,-1.8487,-1.8528,-1.85,-1.8527,-1.8572,-1.8545,-1.8592,-1.8587,-1.8589,-1.8614,-1.858,-1.8605,-1.8578,-1.86,-1.8586,-1.8629,-1.8634,-1.8629,-1.8624,-1.8632,-1.8633,-1.8639,-1.8633,-1.8612,-1.8611,-1.8611,-1.861,0,-1.8599,-1.8581,-1.8626,-1.8619,-1.8618,-1.8652,-1.8647,-1.8672,-1.8661,-1.8694,-1.87,-1.8684,-1.8709,-1.8691,-1.8716,-1.8706,-1.8764,-1.875,-1.8762,-1.8759,-1.8805,-1.8801,-1.8955,-1.8974,-1.8829,-1.883,-1.8831,0,-1.8667,-1.8698,-1.8695,-1.8709,-1.8711,-1.8735,-1.8747,-1.8722,-1.8736,-1.8743,-1.8768,-1.879,-1.8806,-1.8848,-1.8839,-1.8858,-1.8845,-1.8898,-1.8848,-1.8855,-1.8847,-1.8845,-1.8849,-1.8908,-1.891,-1.8911,-1.8912,0,-1.879,-1.878,-1.8799,-1.8815,-1.883,-1.8841,-1.885,-1.8864,-1.8839,-1.8857,-1.8882,-1.8895,-1.892,-1.8943,-1.8959,-1.8959,-1.8932,-1.8928,-1.894,-1.8948,-1.8954,-1.8952,-1.879,-1.8925,-1.8924,-1.8923,-1.8922,-1.8922,-1.8883,-1.8909,-1.8911,-1.8933,-1.8936,-1.8946,-1.8969,-1.8961,-1.8982,-1.9,-1.8984,-1.9015,-1.9019,-1.9037,-1.9041,-1.9065,-1.9043,-1.906,-1.9064,-1.9068,-1.9075,-1.895,-1.9067,-1.9067,-1.9067,-1.9066,-1.9066,0,-1.9005,-1.9004,-1.9025,-1.9038,-1.9056,-1.9028,-1.9037,-1.9053,-1.908,-1.9086,-1.9103,-1.9132,-1.9154,-1.9147,-1.9167,-1.9187,-1.9176,-1.9193,-1.9192,-1.9192,-1.9093,-1.9081,-1.9203,-1.9203,-1.9202,-1.9202,-1.9202,-1.9202,-1.9071,-1.9113,-1.9104,-1.9148,-1.9147,-1.9176,-1.9184,-1.9192,-1.9197,-1.9231,-1.9249,-1.9244,-1.9245,-1.9264,-1.9283,-1.9281,-1.929,-1.9313,-1.9306,-1.9213,-1.9199,-1.9186,-1.9175,-1.9315,-1.9315,-1.9403,-1.9404,-1.9405]},{"header":{"parameterUnit":"m.s-1","parameterCategory":1,"la1":30.2991,"la2":30.254,"lo1":-89.0895,"lo2":-89.0444,"dy":0.0017,"dx":0.0017,"nx":28,"ny":28,"refTime":"2024-05-19T03:00:00:Z","depth":0,"parameterNumber":3,"parameterNumberName":"V-component_of_WINDS"},"data":[0,0,0,0,0,0,0,0,0,0,0,0,0,0,0,0,0,0,0,0,0,0,0,0,0,0,0,0,0,0,0,0,0,0,0,0,0,0,0,0,0,0,0,0,0,0,0,0,0,0,0,0,0,0,0,0,0,0,-1.1156,-1.1156,0,-1.1186,-1.1186,-1.1187,-1.1193,-1.1193,-1.1193,-1.1192,-1.1223,-1.1224,-1.1225,0,0,0,0,0,0,0,0,0,0,0,0,0,-1.1101,-1.1102,-1.1155,-1.1156,-1.1156,-1.1186,-1.1186,-1.1187,-1.1193,-1.1193,-1.1192,-1.1192,-1.1223,-1.1224,-1.1225,0,0,0,0,0,0,0,0,0,0,0,0,0,-1.1128,-1.1103,-1.1155,-1.1163,-1.1164,-1.1186,-1.1186,-1.1187,-1.1193,-1.1193,-1.1192,-1.1192,-1.1222,-1.1224,-1.1226,-1.1242,0,0,-1.123,-1.1231,0,0,0,0,0,0,0,0,-1.1126,-1.113,-1.1161,-1.1162,-1.1164,-1.1185,-1.1179,-1.1205,-1.1193,-1.1182,-1.1192,-1.1192,-1.1211,-1.1213,-1.122,-1.1244,-1.1245,-1.123,-1.1231,-1.1232,-1.1232,0,0,0,0,0,0,0,-1.1124,-1.1128,-1.1168,-1.1162,-1.1163,-1.1164,-1.1168,-1.1184,-1.1198,-1.1183,-1.1183,-1.1187,-1.1211,-1.1218,-1.1221,-1.1245,-1.123,-1.1232,-1.1233,-1.1233,-1.1283,-1.1283,0,0,0,0,0,0,-1.1121,-1.1127,-1.1167,-1.1168,-1.1144,-1.1166,-1.1169,-1.1179,-1.1198,-1.12,-1.1187,-1.1187,-1.1216,-1.1219,-1.1222,-1.1242,-1.1232,-1.1233,-1.1234,-1.1283,-1.1283,-1.1283,0,0,0,0,0,0,-1.112,-1.1125,-1.1165,-1.1148,-1.1153,-1.1167,-1.1177,-1.118,-1.1186,-1.1201,-1.1204,-1.1192,-1.1216,-1.122,-1.1237,-1.1243,-1.1234,-1.1236,-1.1282,-1.1283,-1.1283,-1.1282,0,0,0,0,0,0,-1.1119,-1.1124,-1.1131,-1.1148,-1.1154,-1.118,-1.1178,-1.118,-1.1189,-1.1189,-1.1206,-1.1209,-1.1216,-1.1234,-1.1238,-1.1245,-1.1237,-1.1282,-1.1282,-1.1283,-1.1282,-1.1283,-1.1284,0,0,0,0,0,-1.1117,-1.113,-1.1131,-1.1136,-1.1163,-1.1181,-1.1184,-1.1192,-1.119,-1.1196,-1.1206,-1.1208,-1.1242,-1.1236,-1.1241,-1.1248,-1.1281,-1.1282,-1.1283,-1.1281,-1.1283,-1.1283,0,0,0,0,0,0,-1.1113,-1.1132,-1.1134,-1.1153,-1.1165,-1.1182,-1.119,-1.1193,-1.1206,-1.1206,-1.1215,-1.1219,-1.1235,-1.1243,-1.1237,-1.1264,-1.1261,-1.1263,-1.1258,-1.126,-1.1261,-1.1258,-1.1238,0,0,0,0,0,-1.1115,-1.1128,-1.1144,-1.1159,-1.1165,-1.1176,-1.1185,-1.119,-1.1203,-1.1208,-1.1218,-1.123,-1.1243,-1.1252,-1.1265,-1.1283,-1.1286,-1.129,-1.1291,-1.1291,-1.1293,-1.1302,-1.1303,-1.1286,-1.1286,-1.1286,0,0,-1.1118,-1.113,-1.1138,-1.1159,-1.1168,-1.1181,-1.1181,-1.1195,-1.1204,-1.121,-1.1227,-1.1235,-1.1249,-1.1266,-1.1274,-1.1273,-1.1298,-1.1292,-1.1293,-1.1294,-1.1303,-1.1305,-1.1306,-1.1287,-1.1287,-1.1287,0,0,-1.1131,-1.1141,-1.1155,-1.1165,-1.1179,-1.1187,-1.119,-1.1206,-1.1211,-1.1228,-1.1233,-1.1244,-1.1267,-1.1276,-1.1284,-1.1299,-1.1301,-1.1303,-1.1308,-1.1316,-1.1318,-1.1319,-1.1324,-1.1325,-1.1304,-1.1304,-1.1304,0,-1.1133,-1.1153,-1.1161,-1.1175,-1.1184,-1.1189,-1.1202,-1.1211,-1.123,-1.1235,-1.1234,-1.1262,-1.1272,-1.1291,-1.1294,-1.1301,-1.1304,-1.1301,-1.1317,-1.1318,-1.1319,-1.1324,-1.1326,-1.1304,-1.1304,-1.1304,-1.1304,0,-1.1154,-1.1168,-1.1177,-1.1195,-1.1204,-1.1218,-1.1228,-1.1236,-1.124,-1.1248,-1.1265,-1.1276,-1.1292,-1.1297,-1.1301,-1.1316,-1.1315,-1.1315,-1.1312,-1.1321,-1.1325,-1.1327,-1.1305,-1.1305,-1.1304,-1.1304,0,0,-1.1166,-1.1188,-1.1191,-1.1198,-1.1215,-1.1225,-1.1239,-1.1253,-1.126,-1.1273,-1.1284,-1.1302,-1.1302,-1.1311,-1.1316,-1.1324,-1.1334,-1.1323,-1.1323,-1.1324,-1.1351,-1.1351,-1.1353,-1.1336,-1.1336,-1.1336,-1.135,0,-1.1181,-1.1205,-1.1212,-1.1232,-1.1244,-1.1249,-1.1261,-1.1272,-1.1279,-1.129,-1.1298,-1.131,-1.131,-1.1315,-1.1323,-1.1331,-1.134,-1.133,-1.1346,-1.1346,-1.1342,-1.1355,-1.1355,-1.1367,-1.1351,-1.1352,-1.1352,0,-1.1201,-1.1213,-1.1234,-1.1248,-1.1254,-1.1264,-1.1277,-1.1288,-1.13,-1.1305,-1.1314,-1.1319,-1.1332,-1.1328,-1.1346,-1.134,-1.1347,-1.1351,-1.1352,-1.1354,-1.1349,-1.1357,-1.1371,-1.1372,-1.1355,-1.1355,-1.1354,0,-1.1206,-1.1228,-1.1244,-1.125,-1.1267,-1.1274,-1.1281,-1.1293,-1.1301,-1.1313,-1.1318,-1.1331,-1.1338,-1.1348,-1.1356,-1.1352,-1.1373,-1.137,-1.1376,-1.1376,-1.1381,-1.138,-1.1396,-1.1385,-1.1385,-1.1385,-1.1385,0,-1.1221,-1.1234,-1.1246,-1.1256,-1.127,-1.1278,-1.1291,-1.1299,-1.1309,-1.132,-1.1325,-1.1334,-1.1344,-1.1354,-1.136,-1.1374,-1.1377,-1.1381,-1.1382,-1.138,-1.138,-1.1385,-1.1384,-1.1386,-1.1386,-1.1385,-1.1385,0,-1.123,-1.1239,-1.1256,-1.1271,-1.1274,-1.1284,-1.1296,-1.1305,-1.1312,-1.1325,-1.1329,-1.134,-1.1352,-1.1361,-1.1377,-1.1381,-1.1396,-1.1397,-1.1392,-1.1392,-1.1398,-1.1397,-1.1417,-1.142,-1.1408,-1.1408,-1.1408,0,-1.1239,-1.1249,-1.1264,-1.1272,-1.1279,-1.1291,-1.1299,-1.1307,-1.1315,-1.1329,-1.1336,-1.1349,-1.136,-1.138,-1.1389,-1.1402,-1.1403,-1.1409,-1.1405,-1.1403,-1.1403,-1.1402,-1.1403,-1.141,-1.141,-1.141,-1.141,0,-1.1254,-1.1258,-1.1269,-1.1282,-1.1292,-1.1302,-1.1313,-1.1319,-1.1328,-1.1337,-1.135,-1.1359,-1.1375,-1.1388,-1.14,-1.1407,-1.141,-1.1411,-1.1413,-1.1411,-1.1408,-1.1409,-1.1393,-1.1411,-1.1411,-1.1411,-1.1411,-1.1411,-1.1263,-1.1271,-1.1283,-1.1296,-1.1305,-1.1314,-1.1323,-1.1331,-1.1342,-1.1356,-1.136,-1.1373,-1.1384,-1.1402,-1.1409,-1.1419,-1.1419,-1.1422,-1.1423,-1.1423,-1.1423,-1.1406,-1.1422,-1.1422,-1.1422,-1.1422,-1.1422,0,-1.1277,-1.1285,-1.1296,-1.1311,-1.1321,-1.1322,-1.1334,-1.1342,-1.1353,-1.1364,-1.1374,-1.1388,-1.1401,-1.141,-1.1422,-1.1429,-1.143,-1.1432,-1.1431,-1.1433,-1.1423,-1.142,-1.143,-1.143,-1.143,-1.143,-1.143,-1.143,-1.1286,-1.13,-1.1305,-1.1324,-1.1331,-1.1344,-1.1351,-1.1359,-1.1367,-1.1383,-1.1393,-1.14,-1.1409,-1.1422,-1.1433,-1.1435,-1.144,-1.1441,-1.1443,-1.1434,-1.1433,-1.1432,-1.1429,-1.1442,-1.1442,-1.1452,-1.1452,-1.1452]}]]